Location: Vaughan
(31.9146°N, 97.1736°W)
Time: 01:55:04
(UTC+00:00)

Helios 1A Rocket - Pass Details

Date: 10 December 2025
Orbit: 433 x 443 km, 98.3° (Epoch: 12 January)

Event Time Altitude Azimuth Distance (km) Brightness Sun altitude
Exits shadow 23:37:14 - 69° (ENE) 2,098 5.1 -3.2°
Enters shadow 00:46:16 -48° 8° (N) 10,060 9.2 -16.9°
Maximum altitude 01:11:47 50° 285° (WNW) 582 3.2 -22.1°
